Вернуться в каталог

COSMOS 1675

АктивенВоенныеHEO
NORAD 15952·PAYLOAD·🇷🇺 Russia

Запущен Aug 12, 1985 с Plesetsk Cosmodrome

Loading…

Ближайшие Пролёты (ближайшие 24 часа)

TLE

СвежийSource: Space-Track

Эпоха: Sep 14, 2026, 06:24 UTC

1 15952U 85071A   26257.26669666 -.00000069  00000-0  00000-0 0  9998
2 15952  65.7716  14.6651 6278281 266.3632  25.0113  3.14133247392498

Отслеживайте COSMOS 1675 в реальном времени с AllMySat

Download on the App Store